Tracking 31027 objects as of 19-Jul-2025
HD Live streaming from Space Station
objects crossing your sky now

STARLINK-30962

Track STARLINK-30962 now!
10-day predictions
STARLINK-30962 is classified as:


NORAD ID: 58458
Int'l Code: 2023-183X
Perigee: 565.3 km
Apogee: 567.2 km
Inclination: 43.0 °
Period: 95.8 minutes
Semi major axis: 6937 km
RCS: Unknown
Launch date: November 28, 2023
Source: United States (US)
Launch site: AIR FORCE EASTERN TEST RANGE (AFETR)
Your satellite tracking list
HAWK-4A
Track 1 satellite(s)




NASA's NSSDC Master Catalog

Two Line Element Set (TLE):
1 58458U 23183X   25199.57531582 -.00000097  00000-0  78840-5 0  9998
2 58458  43.0020 234.8988 0001347 269.2608  90.8080 15.02536292 91506
Source of the keplerian elements: AFSPC